| time (UTC) | temp F | wind direction | speed MPH | gust MPH | rain 1hr in | rain 24hr in | rain mn in | humidity % | barometer mb |
| 20260505035430 | 65 | 0 | 0.0 | 0.0 | 0.00 | 0.00 | 0.00 | 69 | 1010.3 |
| 20260505033930 | 66 | 110 | 1.0 | 1.0 | 0.00 | 0.00 | 0.00 | 66 | 1010.5 |
| 20260505032430 | 67 | 137 | 1.0 | 2.0 | 0.00 | 0.00 | 0.00 | 64 | 1010.6 |
| 20260505030930 | 67 | 107 | 1.0 | 1.0 | 0.00 | 0.00 | 0.00 | 63 | 1010.5 |
| 20260505025430 | 68 | 150 | 1.0 | 2.0 | 0.00 | 0.00 | 0.00 | 63 | 1010.3 |
| 20260505023930 | 68 | 167 | 1.0 | 3.0 | 0.00 | 0.00 | 0.00 | 62 | 1009.9 |
| 20260505022430 | 68 | 126 | 1.0 | 2.0 | 0.00 | 0.00 | 0.00 | 62 | 1009.8 |
| 20260505020930 | 69 | 99 | 1.0 | 1.0 | 0.00 | 0.00 | 0.00 | 60 | 1009.5 |
| 20260505015431 | 70 | 0 | 0.0 | 0.0 | 0.00 | 0.00 | 0.00 | 58 | 1009.7 |
| 20260505013930 | 70 | 0 | 0.0 | 0.0 | 0.00 | 0.00 | 0.00 | 57 | 1009.4 |
| 20260505012430 | 71 | 110 | 1.0 | 1.0 | 0.00 | 0.00 | 0.00 | 56 | 1009.1 |
| 20260505010930 | 72 | 146 | 2.0 | 2.0 | 0.00 | 0.00 | 0.00 | 54 | 1009.1 |
| 20260505005430 | 73 | 141 | 1.0 | 1.0 | 0.00 | 0.00 | 0.00 | 52 | 1009.0 |
| 20260505003930 | 74 | 161 | 1.0 | 2.0 | 0.00 | 0.00 | 0.00 | 51 | 1009.2 |
| 20260505002431 | 74 | 104 | 1.0 | 2.0 | 0.00 | 0.00 | 0.00 | 50 | 1009.1 |
| 20260504235431 | 75 | 156 | 2.0 | 4.0 | 0.00 | 0.00 | 0.00 | 48 | 1009.1 |
| 20260504233930 | 76 | 187 | 2.0 | 3.0 | 0.00 | 0.00 | 0.00 | 47 | 1009.3 |
| 20260504232430 | 76 | 130 | 1.0 | 1.0 | 0.00 | 0.00 | 0.00 | 47 | 1009.2 |
| 20260504230930 | 77 | 198 | 3.0 | 4.0 | 0.00 | 0.00 | 0.00 | 45 | 1009.3 |
| 20260504225431 | 77 | 169 | 3.0 | 5.0 | 0.00 | 0.00 | 0.00 | 45 | 1009.7 |
| 20260504223931 | 78 | 173 | 6.0 | 7.0 | 0.00 | 0.00 | 0.00 | 43 | 1009.9 |
| 20260504222430 | 78 | 236 | 4.0 | 5.0 | 0.00 | 0.00 | 0.00 | 44 | 1010.1 |
| 20260504220930 | 78 | 170 | 4.0 | 4.0 | 0.00 | 0.00 | 0.00 | 44 | 1010.0 |
| 20260504215431 | 78 | 186 | 4.0 | 5.0 | 0.00 | 0.00 | 0.00 | 42 | 1010.1 |
| 20260504213930 | 79 | 224 | 3.0 | 7.0 | 0.00 | 0.00 | 0.00 | 41 | 1010.6 |
| 20260504212430 | 79 | 167 | 5.0 | 6.0 | 0.00 | 0.00 | 0.00 | 41 | 1010.4 |
| 20260504210931 | 79 | 300 | 1.0 | 9.0 | 0.00 | 0.00 | 0.00 | 41 | 1010.7 |
| 20260504205431 | 79 | 219 | 5.0 | 5.0 | 0.00 | 0.00 | 0.00 | 41 | 1010.7 |
| 20260504203930 | 80 | 154 | 6.0 | 9.0 | 0.00 | 0.00 | 0.00 | 41 | 1011.2 |
| 20260504202430 | 80 | 237 | 2.0 | 2.0 | 0.00 | 0.00 | 0.00 | 42 | 1011.2 |
| 20260504200930 | 79 | 180 | 2.0 | 8.0 | 0.00 | 0.00 | 0.00 | 41 | 1011.7 |
| 20260504195430 | 79 | 124 | 2.0 | 3.0 | 0.00 | 0.00 | 0.00 | 41 | 1012.0 |
| 20260504193931 | 79 | 191 | 6.0 | 7.0 | 0.00 | 0.00 | 0.00 | 41 | 1012.3 |
| 20260504192431 | 79 | 263 | 2.0 | 5.0 | 0.00 | 0.00 | 0.00 | 40 | 1012.5 |
| 20260504190931 | 78 | 201 | 5.0 | 5.0 | 0.00 | 0.00 | 0.00 | 42 | 1012.7 |
| 20260504183930 | 78 | 211 | 6.0 | 7.0 | 0.00 | 0.00 | 0.00 | 42 | 1013.0 |
| 20260504182430 | 78 | 164 | 3.0 | 7.0 | 0.00 | 0.00 | 0.00 | 40 | 1013.2 |
| 20260504180930 | 77 | 229 | 4.0 | 4.0 | 0.00 | 0.00 | 0.00 | 43 | 1013.3 |
| 20260504175430 | 77 | 146 | 6.0 | 7.0 | 0.00 | 0.00 | 0.00 | 43 | 1013.6 |
| 20260504173930 | 76 | 106 | 3.0 | 6.0 | 0.00 | 0.00 | 0.00 | 41 | 1013.9 |
| 20260504150930 | 69 | 120 | 4.0 | 7.0 | 0.00 | 0.00 | 0.00 | 59 | 1015.0 |
| 20260504080931 | 56 | 37 | 5.0 | 7.0 | 0.00 | 0.00 | 0.00 | 88 | 1015.4 |
| 20260504045431 | 60 | 88 | 1.0 | 1.0 | 0.00 | 0.00 | 0.00 | 79 | 1016.5 |
| 20260504043931 | 60 | 55 | 1.0 | 1.0 | 0.00 | 0.00 | 0.00 | 79 | 1016.4 |
| 20260504042431 | 60 | 64 | 1.0 | 1.0 | 0.00 | 0.00 | 0.00 | 78 | 1016.4 |
| 20260504040931 | 61 | 66 | 1.0 | 1.0 | 0.00 | 0.00 | 0.00 | 77 | 1016.4 |